Wind_Speed
37 36 35 33 31 28 26 25 24 23 23 23 24 25 25 25 25 25 23 21 21 22 23 24 23 22 24 23 20 17 17 17 17 18 18 15 13 12 12 12 12 13 13 13 14 15 16 17 17 17 18 19 21 22 24 24 25 25 25 26 26 25 24 24 23 23 24 25 27 30 31 31 30 28 25 22 19 22 26 24 21 21 21 20 19 18 16 14
38 37 35 33 31 29 28 27 26 26 25 24 25 25 25 26 27 27 26 24 22 22 23 25 25 24 24 25 23 20 19 19 18 18 19 18 15 13 13 13 13 13 13 13 13 14 15 16 17 17 17 18 19 20 22 23 24 25 25 26 26 26 25 24 24 24 24 25 27 30 32 33 32 31 28 27 27 29 30 29 27 25 24 23 22 21 18 14
38 37 35 33 31 30 30 29 30 29 28 26 25 26 26 26 27 28 28 27 25 23 23 24 26 26 25 25 25 23 21 21 19 19 21 20 18 15 14 14 14 14 13 12 13 13 14 14 15 16 16 17 18 19 21 22 24 24 24 26 27 27 26 25 25 25 24 25 26 29 32 33 34 34 29 29 33 34 34 34 32 29 27 25 24 22 19 15
38 36 34 33 31 31 31 32 32 32 31 29 27 26 27 28 28 28 29 29 28 26 25 25 26 27 27 26 26 25 24 23 21 20 22 22 20 17 15 15 15 15 15 13 12 13 13 13 14 15 16 16 17 18 19 21 23 24 24 26 27 27 27 26 26 26 26 25 26 28 32 34 35 37 33 29 32 34 35 37 34 31 30 27 24 23 22 18
38 36 34 33 32 32 33 33 34 34 34 32 30 28 28 29 29 29 29 29 29 29 28 27 26 27 28 28 27 27 26 25 23 21 23 24 22 19 17 16 15 16 16 14 13 13 13 13 13 14 15 16 17 17 18 20 22 23 24 26 27 28 27 27 26 27 27 27 27 28 31 34 35 39 38 32 30 31 34 35 33 31 30 27 24 24 23 20
38 36 35 34 33 33 33 34 35 35 35 34 33 32 31 31 31 31 31 31 30 30 30 29 28 28 29 30 29 30 29 27 25 23 24 25 24 21 18 17 16 17 18 16 14 13 12 13 13 13 14 15 16 17 18 19 20 22 24 26 27 28 28 28 28 28 28 28 28 28 30 33 35 38 41 38 33 32 34 34 32 30 28 27 25 25 24 20
38 37 36 35 35 34 35 36 37 37 36 36 35 35 35 34 34 33 33 33 32 32 32 31 30 30 30 31 32 32 31 28 26 25 24 25 25 23 20 18 17 17 19 17 16 14 13 12 13 13 13 14 15 16 17 17 19 21 23 25 26 27 28 28 29 29 29 29 29 29 30 31 34 37 40 41 38 34 33 32 31 29 28 28 27 26 25 22
39 37 37 37 37 36 37 37 38 38 38 37 37 37 37 37 36 35 35 34 34 34 34 33 32 32 31 32 33 33 32 29 27 26 25 25 26 25 22 20 18 18 19 18 17 16 14 13 13 13 13 13 14 15 16 17 17 19 21 23 25 26 27 28 29 30 30 30 30 31 31 31 33 35 37 40 41 39 36 33 30 29 28 29 29 29 28 27
39 38 38 38 39 39 38 38 39 40 40 39 39 39 38 37 37 37 36 35 35 35 35 35 34 34 32 32 32 32 32 28 26 26 25 25 26 26 24 21 19 19 20 19 18 17 15 14 13 13 13 13 13 14 15 15 16 17 19 21 23 25 27 28 29 30 30 31 32 32 32 32 32 34 36 38 40 41 41 38 35 33 31 29 29 29 29 28
40 39 39 40 41 41 40 39 41 42 42 41 40 40 38 37 37 36 36 35 35 35 35 35 35 34 33 32 31 31 30 28 26 26 25 25 26 26 25 22 20 19 20 20 19 18 17 16 15 13 13 13 13 13 14 14 15 16 17 19 21 23 25 26 28 29 30 31 32 33 33 34 33 33 34 36 38 40 43 43 41 40 38 35 31 29 28 26
41 41 41 42 42 42 41 41 43 44 43 41 40 40 38 37 36 35 35 34 34 34 34 34 33 33 32 30 29 29 29 27 26 26 25 25 26 27 26 24 21 20 21 21 20 19 18 17 16 15 14 14 14 13 13 14 14 14 16 17 19 21 23 25 27 28 29 30 31 32 33 34 35 35 34 35 36 38 41 43 44 44 44 43 39 33 30 28
44 43 43 43 43 43 43 43 44 45 43 41 39 39 37 35 34 33 33 32 32 32 31 32 31 31 29 28 27 27 27 26 25 25 25 25 26 27 27 26 23 22 22 22 21 20 19 18 18 17 15 14 14 14 14 14 13 13 14 15 17 19 21 23 25 27 28 29 30 31 32 33 35 35 35 35 35 36 37 39 42 45 46 47 46 41 35 31
46 45 45 45 45 44 44 44 45 45 43 40 38 37 35 33 32 31 31 30 30 29 29 29 29 28 27 26 25 25 26 26 25 26 26 26 27 29 29 29 26 24 23 23 22 22 21 20 19 18 17 15 14 14 14 14 13 13 14 14 15 17 18 21 23 25 27 28 29 30 30 31 34 35 36 36 35 35 36 36 38 40 43 45 46 44 39 35
48 47 46 46 45 45 44 45 45 44 41 38 36 34 32 30 30 29 29 28 28 28 28 27 27 25 25 24 23 24 26 26 26 27 27 28 29 30 31 31 30 27 25 25 24 24 23 21 20 19 18 17 16 15 15 14 12 13 13 13 14 15 17 19 21 23 25 26 28 29 28 29 32 34 35 36 36 35 35 35 36 36 38 40 41 41 40 38
49 48 47 46 45 45 44 44 44 42 38 35 33 31 29 27 27 27 26 26 26 26 26 25 24 24 23 23 23 25 27 28 27 28 29 29 30 31 32 33 32 29 27 27 26 25 24 23 22 21 19 19 18 16 16 15 13 13 13 13 14 15 16 18 19 21 23 25 26 28 28 28 30 32 33 35 35 35 35 35 35 35 35 37 38 38 37 37
49 48 47 46 45 44 43 43 42 40 35 32 31 29 26 25 24 24 24 24 24 24 23 23 23 23 23 23 24 26 28 28 28 28 29 29 30 31 32 33 33 31 29 28 28 26 25 24 23 22 21 20 19 18 17 15 14 13 13 13 14 14 15 16 17 19 21 23 25 26 28 29 29 31 32 34 35 35 35 34 34 34 34 34 35 35 35 36
48 47 46 45 44 43 42 41 40 37 33 30 29 27 25 23 22 22 22 22 22 22 22 23 23 24 24 24 24 26 27 28 27 27 28 28 29 30 31 32 34 33 30 29 29 28 26 25 24 23 22 21 21 20 18 16 14 14 14 14 14 13 14 14 15 17 19 22 23 25 27 28 29 30 30 31 33 34 35 35 34 34 33 33 33 34 34 35
46 45 45 44 43 41 40 39 38 35 31 29 28 27 25 23 23 23 22 22 22 23 23 23 24 24 24 24 24 24 25 26 26 25 25 26 27 28 30 31 33 33 31 30 29 29 27 26 24 23 23 23 22 21 20 17 15 14 14 14 14 13 13 13 14 15 17 20 22 24 25 26 27 29 29 30 31 32 34 34 35 35 35 34 34 34 35 35
45 44 43 42 41 39 38 37 36 34 30 29 29 28 26 25 25 25 24 23 24 24 24 24 24 24 24 23 22 22 23 23 23 22 22 23 24 25 27 29 31 32 31 30 30 29 28 26 25 24 24 24 23 23 22 19 16 15 15 15 15 14 13 13 13 14 15 18 20 22 24 24 25 27 28 29 29 30 32 33 34 35 35 36 36 36 36 37
43 42 42 41 40 38 37 36 36 34 31 30 30 29 28 27 27 27 26 25 25 25 25 25 24 23 22 21 20 20 20 21 21 20 19 19 20 22 24 26 28 30 30 29 29 29 28 26 25 24 25 26 25 24 23 20 18 17 16 16 16 15 14 13 13 14 14 16 18 20 21 22 24 25 26 27 28 29 29 30 32 33 34 35 35 35 36 37
42 41 41 41 40 38 37 37 36 34 32 31 31 31 30 29 29 28 27 26 25 25 26 25 23 22 21 19 18 17 18 19 20 19 18 17 18 19 21 23 25 27 28 26 27 29 28 25 24 25 27 27 26 25 24 21 20 19 18 18 17 16 15 14 14 14 14 15 17 18 19 20 22 23 24 26 27 27 28 29 29 31 32 33 33 33 34 34
43 42 42 42 41 39 38 38 37 35 34 33 33 33 31 30 30 29 27 26 26 26 25 24 22 20 19 18 16 16 17 18 18 17 16 15 15 16 18 20 22 24 26 25 26 28 27 24 24 26 28 28 27 27 25 22 21 20 20 19 18 17 16 15 14 14 14 15 16 17 17 18 21 22 23 24 25 26 27 27 28 29 30 31 31 31 31 32
45 44 44 44 43 41 40 40 39 37 36 35 35 34 32 31 30 29 27 26 26 26 24 22 19 18 18 17 16 16 16 16 15 15 14 12 12 13 14 16 19 22 23 24 24 25 23 22 24 27 29 29 29 28 26 23 21 21 21 21 20 18 17 15 15 14 14 15 15 15 15 16 19 21 22 22 23 24 24 25 26 27 28 29 30 30 30 30
45 45 45 45 44 43 42 41 40 38 37 37 36 34 32 31 30 29 27 25 25 24 23 20 18 17 17 16 15 15 14 13 13 13 12 12 12 12 12 13 15 18 20 20 20 20 19 20 24 27 29 30 29 28 26 23 21 21 23 23 21 19 17 16 15 14 14 15 14 14 15 15 17 20 20 21 21 22 22 23 25 26 27 28 28 28 28 28
43 43 44 45 45 44 43 42 40 39 38 37 36 34 32 31 30 28 26 25 24 23 21 19 17 17 17 16 15 14 13 13 12 12 12 12 11 12 13 14 14 16 16 16 15 14 15 19 23 26 29 29 28 28 27 23 21 22 24 24 22 20 18 17 16 15 15 16 15 14 14 15 16 17 19 20 20 20 21 21 23 24 25 26 26 26 26 26
39 40 41 43 44 43 42 41 40 38 37 36 35 33 31 29 28 27 25 24 23 21 20 19 18 17 16 16 15 14 13 13 13 12 12 12 12 12 13 14 15 16 16 15 13 11 13 17 20 24 27 27 27 28 26 23 22 23 26 25 22 20 18 18 17 16 16 16 15 14 14 14 14 15 17 18 19 20 20 20 21 22 23 23 24 24 24 24
34 36 38 39 41 40 39 38 37 36 35 34 33 31 29 28 26 25 24 22 22 21 20 19 18 17 17 16 15 14 13 13 13 13 13 13 13 13 14 16 17 17 17 16 14 12 13 15 17 21 23 24 25 26 25 24 23 25 27 25 23 21 19 18 17 17 17 17 15 14 13 14 14 14 15 17 19 19 20 20 20 21 21 21 21 21 21 21
29 32 34 36 37 36 35 34 34 33 32 31 30 28 27 25 25 24 22 22 22 21 20 19 18 17 16 16 15 14 14 14 15 15 15 14 14 14 15 17 18 19 18 17 16 14 13 15 16 19 21 23 24 23 24 25 25 27 28 25 24 22 20 20 19 18 18 17 16 14 13 13 14 13 14 16 18 19 21 21 21 20 20 20 20 19 19 19
25 28 30 32 33 31 30 30 30 29 29 28 27 26 24 23 23 22 22 22 22 21 20 19 18 17 16 17 16 16 16 16 17 16 16 15 15 15 15 16 18 20 20 18 17 15 15 17 18 19 21 22 21 21 24 26 27 29 28 25 25 24 22 21 20 19 18 18 17 15 13 13 15 14 14 15 17 18 21 22 21 21 20 20 20 19 18 18
22 25 27 29 28 27 27 27 27 27 27 26 24 24 23 23 22 22 22 23 22 21 19 18 18 18 18 18 17 17 17 17 18 17 17 17 16 16 16 17 18 20 20 19 18 16 17 20 20 20 19 18 17 19 24 26 27 29 27 26 26 25 23 21 21 20 19 19 19 17 14 13 14 14 14 15 16 17 20 22 22 21 20 21 20 19 18 18
20 23 25 25 25 24 24 25 25 26 25 24 23 23 22 22 23 23 23 23 21 20 19 19 19 19 19 18 18 18 18 18 18 18 18 18 18 18 17 17 18 19 19 19 19 18 20 22 22 21 18 16 17 20 23 25 26 28 27 26 26 26 24 22 21 20 19 21 21 17 14 13 14 14 13 14 15 17 19 21 22 22 20 20 20 20 19 19
18 21 22 23 22 22 23 24 25 25 24 23 23 23 23 23 23 23 23 22 20 20 20 20 20 20 19 18 18 18 18 18 18 18 19 19 19 19 18 18 19 19 19 19 20 20 22 23 23 21 19 18 19 21 23 24 25 27 26 26 26 26 24 22 20 20 21 22 20 17 15 14 14 13 13 14 15 17 19 21 22 23 21 20 19 19 20 20
17 19 21 21 21 22 23 24 24 24 23 23 23 23 23 23 23 23 22 21 20 20 20 20 20 20 19 19 18 18 18 18 18 18 19 19 19 20 19 19 19 19 19 19 20 21 23 25 24 21 19 19 20 22 23 23 23 24 23 25 26 26 25 22 20 21 23 22 19 17 16 15 14 13 12 14 16 18 19 20 22 23 22 21 19 19 19 20
15 18 19 19 20 22 23 23 23 23 23 23 23 23 23 23 23 22 22 21 21 21 21 21 21 20 19 19 18 18 18 17 17 17 18 18 19 19 20 20 19 19 19 19 21 23 24 25 24 22 20 20 21 22 21 20 20 21 21 24 26 26 26 22 19 21 24 22 18 17 17 15 14 12 11 13 16 19 20 20 22 23 23 22 20 19 19 19
15 17 18 18 20 21 22 23 23 23 23 23 23 23 22 23 22 22 22 21 21 21 21 21 21 20 19 18 18 18 17 17 17 17 17 17 18 18 19 19 19 19 18 19 20 23 25 25 24 22 21 21 21 21 19 18 19 19 20 24 26 27 27 25 24 26 25 20 17 16 17 15 13 11 11 11 14 18 20 20 21 22 23 22 21 20 20 20
14 16 16 17 19 21 21 22 23 23 23 23 22 22 22 22 22 22 22 21 21 21 21 21 20 19 19 18 18 18 18 17 17 17 17 17 17 17 18 19 19 19 18 18 20 22 24 25 24 23 22 21 21 20 19 18 19 20 22 25 26 27 28 28 27 28 25 19 16 17 16 14 12 10 11 11 13 17 21 21 21 22 22 22 22 21 21 21
13 14 15 16 19 20 21 22 23 23 23 22 22 22 22 22 22 22 22 21 21 21 20 20 20 19 19 19 19 19 19 18 17 17 16 16 16 17 17 18 19 19 18 18 19 21 23 24 25 24 22 21 21 20 19 19 20 21 22 24 26 28 29 28 28 27 23 19 16 17 17 15 13 12 11 10 11 15 19 21 22 23 23 23 23 22 22 22
12 13 14 16 19 21 22 22 23 23 22 22 22 23 23 23 23 23 23 22 21 21 21 20 20 20 20 20 20 20 20 19 18 17 16 16 16 16 17 18 18 19 18 18 18 20 21 23 24 24 23 22 21 20 19 20 22 22 23 24 26 28 27 27 28 26 22 19 17 18 18 15 14 15 14 11 12 15 18 20 22 23 23 23 23 23 23 23
13 13 14 16 19 22 22 22 23 23 23 23 23 23 23 23 24 24 23 22 22 21 21 21 20 20 21 21 21 21 21 20 19 18 17 16 17 17 17 17 18 18 18 18 18 19 20 21 23 24 24 23 21 20 19 20 21 23 25 26 26 28 27 25 26 26 23 20 17 18 17 14 16 18 14 11 13 16 17 18 20 21 22 22 23 23 23 23
16 16 16 18 20 22 23 23 24 24 24 24 24 24 24 24 25 24 23 23 22 21 21 21 21 21 22 22 22 22 22 21 20 19 18 18 18 17 17 16 17 17 18 18 18 19 19 20 22 23 24 23 22 20 19 19 20 22 25 26 26 29 29 27 27 27 26 22 19 19 17 15 17 17 14 13 15 16 16 16 18 18 19 20 21 22 22 22
20 20 20 20 21 23 24 24 25 25 25 25 25 25 25 25 25 25 24 23 22 22 22 22 22 23 23 23 23 23 22 22 21 20 20 19 19 18 16 16 17 17 17 18 18 18 19 19 21 23 24 23 21 20 19 18 19 21 24 26 27 28 30 30 28 27 27 24 21 21 19 17 19 17 14 16 16 16 15 16 16 17 18 19 19 20 21 21
25 25 25 25 25 25 26 26 26 27 27 27 27 27 27 26 26 26 25 25 24 24 23 23 23 24 25 25 24 24 23 23 23 22 21 21 20 19 17 17 16 16 16 17 18 18 18 19 20 21 22 22 22 21 19 19 19 20 23 27 29 29 31 32 29 27 27 25 22 23 20 17 18 16 15 17 17 16 15 15 16 17 18 19 19 20 20 20
30 30 29 29 29 29 29 29 29 29 29 29 28 28 28 28 27 27 27 27 26 26 25 25 25 25 26 26 25 24 24 23 23 22 22 22 21 20 19 18 17 16 17 17 18 18 18 18 19 20 21 21 22 22 20 20 20 20 23 28 31 32 33 33 31 28 26 24 23 23 21 19 18 16 16 17 18 16 16 16 16 17 18 19 20 20 20 19
34 34 33 33 33 33 32 33 33 32 31 30 30 29 29 29 29 29 28 29 28 28 27 27 26 26 27 27 26 25 24 24 23 23 23 23 22 21 20 20 18 18 17 17 18 18 17 18 19 20 20 20 21 21 20 20 21 20 22 26 30 33 33 33 33 31 28 25 25 25 22 20 19 19 19 18 18 18 17 17 17 18 18 19 20 20 20 19
37 37 37 36 36 36 36 36 35 34 34 33 32 31 31 30 30 30 30 30 30 30 29 29 28 28 28 28 27 26 25 24 24 23 23 23 23 22 21 21 20 20 19 18 18 18 17 18 19 19 19 20 20 20 20 19 20 20 21 24 28 31 33 34 33 32 31 29 29 28 24 20 18 19 19 19 19 20 19 18 18 18 18 18 19 20 20 20
38 39 40 39 39 39 39 39 38 37 36 35 34 32 32 32 32 32 31 31 32 32 31 31 30 29 29 29 28 27 26 25 24 24 24 24 23 23 22 21 20 21 21 20 19 18 18 19 19 19 19 19 19 19 20 20 19 19 20 22 25 28 32 34 33 33 33 31 31 30 27 24 22 20 19 20 21 22 21 19 18 18 18 18 18 18 19 19
39 40 40 41 41 42 42 42 41 40 39 38 36 34 34 33 34 33 33 33 33 33 33 33 31 30 30 29 29 28 27 26 25 25 24 25 25 24 22 21 21 21 22 22 20 18 18 19 20 19 18 18 19 20 20 19 19 19 19 20 24 28 32 33 34 35 34 33 34 33 29 28 26 23 21 21 23 24 22 19 19 19 18 17 18 18 18 19
42 41 41 42 42 43 44 44 43 43 42 40 39 37 36 36 36 35 35 35 35 35 35 34 33 31 31 30 29 29 28 27 27 26 26 26 26 25 24 22 21 21 22 22 21 19 18 19 20 20 18 18 20 21 20 20 19 19 18 19 23 27 31 34 35 36 35 35 37 34 30 30 29 26 24 22 23 25 23 21 21 20 18 18 18 18 19 19
44 44 44 43 43 43 44 45 45 44 44 43 41 40 39 38 38 38 38 38 37 37 36 35 34 33 32 31 30 30 30 29 29 28 28 27 27 27 25 23 22 22 23 23 22 21 19 19 19 20 19 19 20 21 21 20 20 19 18 18 20 25 29 33 35 36 36 38 38 35 32 32 30 28 27 25 25 26 24 22 22 21 19 18 18 19 19 19
43 45 46 46 45 45 45 45 45 45 45 44 43 42 41 41 40 40 40 40 39 38 37 36 35 34 33 32 31 31 31 31 31 30 30 29 28 28 27 24 23 23 24 23 23 22 20 19 19 19 19 19 20 20 21 21 21 20 19 18 19 22 26 31 34 37 38 39 39 36 34 34 31 29 29 28 27 27 25 24 24 22 20 19 19 20 20 20
39 43 46 47 47 48 47 47 47 46 46 45 44 44 43 42 42 41 41 41 41 40 38 36 35 35 34 33 33 32 32 33 33 32 32 31 30 29 28 26 25 24 25 24 23 22 21 20 20 19 19 20 21 21 22 22 22 21 20 19 19 20 23 28 33 36 38 39 38 36 36 36 33 31 30 29 28 28 27 26 26 24 22 21 20 21 21 21
34 38 43 46 48 49 49 49 49 48 47 47 47 46 45 44 44 43 43 43 42 41 40 38 36 36 35 34 34 34 34 34 34 34 34 33 32 31 29 28 26 26 26 26 24 23 22 20 20 20 19 20 21 21 21 22 23 23 22 22 21 20 22 26 30 34 37 38 38 38 39 39 34 32 32 30 29 29 28 27 27 26 23 22 22 22 22 22
Wind_Direction
298 300 300 300 298 297 295 294 293 293 294 296 296 296 294 291 287 284 280 275 274 275 279 281 281 281 284 285 284 284 286 286 288 289 289 288 285 279 273 267 266 268 268 267 264 260 257 252 248 243 240 237 234 232 231 231 230 229 228 228 229 228 227 225 223 220 217 213 210 207 203 203 197 194 203 201 192 201 204 202 214 233 239 241 242 244 251 255
296 297 298 297 296 294 294 292 292 291 290 291 291 291 290 288 286 284 282 279 275 273 275 279 281 281 282 284 285 284 285 284 286 288 288 287 285 282 278 272 266 265 265 267 266 262 260 255 251 247 243 240 237 234 232 232 230 229 228 228 228 227 227 225 223 220 217 214 211 206 204 204 199 195 201 202 198 202 208 216 228 239 243 242 240 243 249 248
293 294 294 294 293 293 292 292 291 290 289 288 287 287 286 284 283 281 281 280 278 275 274 277 280 282 282 284 285 285 284 284 284 287 287 284 283 282 281 277 270 265 262 263 266 264 262 258 255 251 246 243 239 236 233 232 231 229 228 228 228 227 226 225 223 221 218 216 213 208 205 205 201 196 198 200 202 211 220 228 236 241 242 241 239 242 242 236
290 291 291 290 290 291 291 291 291 290 289 287 285 284 283 281 280 278 278 278 277 276 275 275 278 281 283 284 286 286 285 284 284 286 286 282 280 281 281 279 273 269 262 259 262 263 264 261 258 255 251 245 240 237 233 232 230 229 228 228 227 227 226 225 224 221 218 216 215 212 207 206 203 197 197 203 207 217 228 233 237 239 240 242 244 244 239 235
287 287 287 286 287 288 289 290 290 290 289 288 286 283 281 280 278 276 275 275 274 274 274 273 275 278 281 283 285 286 286 285 283 283 284 282 280 279 279 277 274 271 265 259 258 259 261 261 260 257 253 249 243 237 233 231 230 228 228 227 227 226 225 225 225 223 219 217 216 215 211 208 206 202 199 205 214 221 228 232 234 236 240 244 245 243 238 236
285 285 284 284 284 285 287 288 287 287 287 287 286 284 281 280 278 276 274 272 272 271 271 271 272 274 277 280 283 285 285 284 282 280 281 280 279 277 276 275 272 271 268 261 257 256 257 259 259 257 253 250 247 242 236 231 229 228 227 227 227 226 225 224 224 223 221 219 216 216 215 212 209 208 205 206 213 223 228 232 235 236 239 241 241 238 233 233
283 283 283 283 283 284 286 286 286 285 285 285 285 284 283 280 278 276 273 271 270 269 269 270 270 271 274 277 280 282 283 282 281 279 279 278 278 277 275 273 270 269 268 264 259 256 254 255 256 255 253 251 249 246 241 235 230 228 228 228 228 227 225 224 224 223 222 221 219 217 217 216 213 212 212 210 211 216 222 227 233 236 237 238 237 233 232 238
281 281 282 282 283 284 285 286 285 285 285 285 285 284 282 281 279 276 273 270 269 268 269 269 270 271 272 275 277 279 281 280 278 277 276 276 276 275 273 270 268 266 266 265 262 258 255 252 252 252 253 251 248 247 246 242 235 229 227 227 228 228 228 226 225 224 223 222 221 219 218 219 218 217 216 216 213 213 214 218 223 226 229 234 237 237 240 246
279 280 281 281 282 284 286 286 286 286 287 287 286 284 282 280 278 276 273 271 269 268 268 269 270 271 272 273 275 277 277 276 275 275 274 273 274 273 271 268 265 264 265 265 263 260 258 254 251 249 250 250 247 245 245 244 241 235 230 227 226 227 228 228 227 226 225 224 222 221 220 219 221 221 219 219 217 215 215 217 219 220 222 225 230 236 242 247
279 279 280 281 283 284 285 285 286 287 288 288 287 285 283 280 277 275 273 271 270 269 268 269 270 271 272 272 273 274 274 273 272 271 270 270 270 270 268 266 263 262 264 264 264 262 260 258 254 249 247 247 247 245 243 242 243 241 237 231 228 226 226 227 228 228 226 226 225 223 222 221 221 223 223 222 221 220 218 220 222 223 226 227 226 227 232 237
278 279 280 281 282 284 285 285 286 287 288 288 287 285 283 280 277 275 273 271 269 268 268 268 269 270 270 271 271 271 271 270 269 267 268 268 267 268 267 265 262 261 262 263 264 263 261 260 257 253 248 245 246 245 243 240 241 242 242 238 233 230 227 225 226 227 227 226 227 226 226 225 223 223 224 225 225 224 223 223 225 226 229 233 235 233 232 233
278 278 279 280 282 283 284 285 285 286 287 286 285 284 282 280 277 274 272 270 269 268 267 267 268 268 268 268 268 268 268 267 265 265 265 266 266 267 267 266 263 261 262 262 263 263 262 260 258 256 252 248 246 245 244 240 238 239 240 241 240 237 233 230 227 226 226 226 227 227 228 229 227 225 225 226 227 227 227 227 228 229 231 235 239 242 241 241
277 278 279 280 281 282 282 283 284 285 285 284 283 282 281 279 276 273 272 270 269 268 267 266 266 267 267 267 266 266 265 264 264 264 264 265 266 267 267 267 265 262 262 262 262 261 260 259 259 257 256 253 248 246 244 241 239 239 238 237 240 240 238 236 233 230 228 227 226 225 227 231 231 229 227 227 228 229 230 231 231 231 233 236 239 242 244 244
277 277 278 278 279 280 281 281 282 282 282 281 280 280 279 278 275 273 271 270 268 267 266 266 266 267 266 265 265 265 264 264 263 263 264 264 264 265 266 267 266 264 262 262 260 260 259 258 258 258 257 256 252 247 244 242 240 240 238 236 235 235 236 237 236 235 232 229 228 225 225 229 231 232 231 230 230 230 231 233 234 234 235 237 239 242 244 244
275 276 276 277 277 278 279 280 280 279 278 277 277 277 277 277 275 273 270 268 266 266 265 266 266 266 265 265 265 265 265 265 264 264 263 263 263 264 265 266 266 265 262 261 260 258 258 257 257 257 257 256 255 250 247 244 241 240 239 236 237 235 233 235 235 235 235 233 231 227 226 228 228 231 233 233 232 232 233 234 236 237 237 238 239 241 242 243
274 274 275 275 275 276 277 277 276 274 274 273 272 273 276 277 276 273 269 266 265 264 264 265 266 266 266 266 266 267 267 266 266 265 264 263 262 262 262 263 264 263 261 260 259 258 257 257 256 256 256 256 256 253 250 246 243 243 241 238 241 241 236 233 232 232 233 234 234 231 228 229 228 229 232 233 233 233 233 235 236 237 238 238 239 240 241 242
273 273 273 273 274 274 274 273 271 270 269 267 266 269 273 275 275 272 268 266 264 264 264 265 267 268 268 268 268 268 268 268 267 265 263 262 260 259 259 259 261 260 259 257 257 257 255 254 254 254 255 255 255 254 252 249 246 246 246 243 242 243 242 238 234 231 230 232 233 233 232 232 231 230 231 232 233 234 234 235 236 237 238 238 239 239 240 242
272 272 272 272 271 271 270 268 267 266 264 262 262 266 269 271 272 271 268 266 266 267 267 268 269 270 270 271 270 269 269 269 268 265 263 260 258 257 256 256 257 258 257 255 255 254 253 252 251 252 252 252 253 253 252 249 247 248 249 249 246 243 242 243 241 237 234 232 232 232 233 234 234 233 232 231 232 233 234 234 235 236 237 237 238 239 240 242
270 270 270 269 268 267 266 265 263 263 260 259 260 264 266 268 268 268 268 268 269 270 270 270 270 271 272 271 270 268 267 266 265 263 260 258 256 255 254 254 255 256 255 254 254 253 252 250 250 250 250 250 250 251 251 249 247 247 248 250 249 246 243 242 244 244 242 239 235 233 233 234 235 236 236 234 233 233 234 234 235 235 236 236 238 240 241 242
268 268 267 266 265 264 262 261 261 260 258 257 259 263 265 266 266 267 268 269 270 271 271 271 271 272 271 269 266 264 263 262 261 258 255 253 252 253 253 253 254 255 255 254 254 253 251 250 249 249 249 248 248 249 249 248 247 247 245 247 249 248 244 242 241 239 240 242 241 238 235 235 234 235 236 236 235 235 235 235 235 235 236 236 237 239 241 242
267 266 265 264 263 261 260 259 259 258 257 257 260 262 264 265 265 266 268 269 270 270 270 271 272 272 269 265 260 257 256 255 255 254 251 249 248 249 250 251 253 255 255 253 253 252 249 247 247 247 247 246 246 247 247 246 247 247 246 245 246 247 247 245 242 239 235 237 241 242 239 238 237 235 235 235 235 235 235 236 236 236 236 237 237 238 239 240
265 264 263 262 261 259 258 258 258 258 258 258 260 262 263 263 264 264 266 268 268 268 269 270 270 267 264 260 254 250 249 249 251 252 251 249 247 247 248 249 251 253 253 251 250 250 248 246 246 246 245 245 244 244 245 244 244 247 248 245 243 243 245 245 246 245 240 236 237 240 240 241 241 239 237 236 236 236 235 236 236 236 236 237 238 238 238 239
264 262 262 261 260 258 258 257 257 257 258 258 259 260 261 262 262 263 264 266 266 266 267 267 264 260 258 255 249 246 246 246 248 249 248 246 245 245 247 250 250 252 253 252 251 252 251 247 246 245 244 243 242 242 242 242 242 246 248 245 241 240 241 244 246 248 248 244 238 235 236 241 244 243 241 240 239 239 238 236 236 236 235 235 236 237 237 238
262 261 260 259 258 257 256 256 256 256 257 257 258 259 259 259 260 261 262 262 263 263 263 260 254 251 251 250 248 245 244 241 240 242 243 241 241 242 245 248 250 253 256 256 256 256 254 249 245 245 244 243 242 242 241 240 240 244 246 245 241 239 239 240 244 247 251 251 246 239 233 233 240 244 243 243 243 243 242 239 238 237 235 234 234 235 236 236
260 259 258 257 256 255 255 255 255 255 255 255 256 257 257 256 257 259 259 259 258 257 255 251 245 244 245 246 246 244 243 240 237 239 241 239 240 241 244 247 250 254 257 259 259 257 252 248 245 246 245 244 243 242 241 239 238 241 245 244 241 238 238 239 241 244 248 251 249 247 241 232 232 239 241 243 244 245 244 243 241 238 236 234 233 233 234 234
258 257 256 255 254 253 253 253 253 253 253 253 253 254 254 254 254 255 254 253 251 249 245 242 240 240 242 243 243 244 245 246 245 247 248 247 246 246 247 250 251 252 255 255 254 251 247 246 246 248 248 246 244 242 241 238 237 240 243 244 242 239 237 238 240 243 246 248 247 247 248 240 232 232 237 239 241 242 242 242 242 239 237 235 232 231 230 229
256 254 253 252 251 251 251 250 250 250 249 249 249 250 250 249 249 249 248 245 242 241 239 238 238 239 241 244 245 247 250 254 257 258 260 259 258 259 258 257 257 256 255 253 249 244 243 245 247 249 250 248 245 243 241 237 235 238 241 243 243 240 237 238 239 242 243 245 246 245 247 248 240 231 233 236 237 237 238 238 238 238 237 235 232 229 226 224
255 252 250 249 249 248 247 246 246 245 244 244 244 244 244 243 243 242 239 236 235 236 235 236 238 240 243 247 249 251 254 257 259 259 260 262 263 265 265 263 263 261 258 254 248 240 239 243 244 246 247 244 241 239 238 235 232 235 238 240 242 241 238 237 237 239 242 244 245 243 242 245 241 232 229 232 234 234 232 231 232 232 233 233 230 227 224 222
253 249 246 245 245 245 242 241 239 238 237 237 237 237 236 235 235 234 231 230 231 233 233 236 240 242 245 247 248 250 253 255 256 257 258 259 259 260 261 261 261 260 259 257 253 245 242 244 243 245 247 246 243 240 237 234 231 233 235 236 240 240 238 237 237 237 240 242 242 240 237 238 239 233 227 226 229 231 229 226 226 226 228 229 226 223 220 220
251 245 242 241 241 239 235 233 231 230 230 229 229 228 227 227 226 226 226 227 229 232 233 236 240 242 243 245 246 249 253 256 258 259 259 259 258 258 258 258 258 257 257 256 255 250 247 246 245 245 248 250 248 244 240 236 232 233 232 232 236 239 238 236 236 236 238 242 241 238 234 233 235 234 230 228 226 227 226 223 221 220 223 225 222 218 216 218
247 242 239 237 236 231 226 224 223 223 223 221 220 220 219 220 220 222 224 226 228 231 234 236 238 241 243 245 248 251 253 256 258 259 260 260 260 260 260 260 259 258 255 252 250 249 249 249 247 245 245 247 246 243 241 238 235 233 230 229 233 235 236 236 237 237 238 241 240 235 232 230 229 226 225 228 226 225 223 220 217 216 218 221 219 215 213 214
244 239 236 233 229 223 218 217 217 216 215 213 212 213 213 215 218 221 224 227 228 231 234 236 239 241 244 246 248 250 252 253 255 257 258 259 260 260 261 262 262 262 260 253 248 247 250 250 248 245 243 244 244 244 241 236 234 233 229 228 230 233 234 234 236 236 235 238 238 236 232 228 225 221 217 222 224 224 221 217 213 212 214 218 217 214 213 213
242 237 233 228 221 216 212 212 213 211 209 207 207 208 211 214 217 221 225 227 229 231 234 237 240 242 244 246 249 251 252 252 253 255 256 256 257 257 259 261 263 265 264 258 249 244 246 249 249 245 243 244 246 246 243 237 234 232 230 227 228 231 232 230 234 237 235 234 234 234 235 231 223 216 213 216 220 222 220 215 211 210 213 215 215 215 214 213
239 235 230 223 215 211 209 209 208 206 204 203 204 207 211 215 219 222 226 228 230 232 235 238 241 243 246 249 252 253 255 255 254 255 256 255 255 255 255 257 259 261 263 261 255 247 244 247 248 247 245 246 247 247 246 243 238 233 229 226 226 228 229 227 230 234 233 229 227 230 234 235 226 214 207 210 216 220 218 214 211 210 212 214 214 214 215 215
236 234 228 218 212 209 206 205 204 202 201 202 204 209 213 218 221 224 226 229 231 233 236 240 243 246 250 253 255 257 258 258 258 258 257 257 256 256 255 255 256 258 260 261 258 251 246 245 247 247 246 246 248 248 247 244 238 231 225 223 223 226 227 226 228 233 232 229 227 230 233 236 232 220 214 212 213 217 218 215 211 211 213 215 215 216 216 216
237 234 227 215 209 207 203 201 201 200 200 203 207 211 216 220 224 226 228 230 233 235 239 243 247 251 254 257 259 261 262 262 261 261 261 262 262 260 258 256 256 257 259 260 259 255 250 246 245 245 245 246 249 251 248 242 235 229 224 220 220 223 225 226 230 235 233 227 227 231 233 235 235 229 224 219 213 212 214 214 212 211 213 216 217 218 216 215
241 234 225 212 206 205 201 199 201 202 203 206 210 214 219 223 227 229 231 233 235 238 242 247 250 255 259 261 262 263 264 263 263 263 263 264 264 262 259 257 255 255 257 258 259 257 253 248 245 244 244 245 247 250 250 244 235 225 220 219 218 221 225 226 229 234 231 224 225 231 231 231 234 231 222 217 218 215 211 211 212 211 214 217 219 220 217 214
244 234 223 211 203 204 203 200 202 205 207 210 214 218 222 226 229 232 234 235 237 240 244 249 254 259 262 264 265 265 265 265 265 265 264 264 264 261 259 257 255 254 256 259 260 259 256 252 248 245 243 242 244 247 249 247 239 225 216 216 217 219 222 225 228 232 230 221 220 228 229 228 231 229 219 207 213 219 211 206 209 210 212 216 217 218 217 214
244 235 225 213 205 207 207 204 206 210 212 214 219 222 226 229 232 235 236 238 240 242 246 252 256 261 263 264 265 266 267 267 267 267 266 265 264 261 259 257 256 255 257 259 262 262 260 255 251 247 244 242 242 244 246 246 242 230 218 213 213 216 219 223 225 228 228 221 217 224 226 226 227 224 219 207 207 217 214 206 205 207 209 212 214 217 217 215
241 237 230 219 212 212 214 211 212 216 218 220 224 227 231 233 236 239 241 242 244 246 250 254 258 261 262 263 264 265 267 268 269 270 269 269 267 264 261 260 260 259 258 260 263 263 261 257 253 250 247 244 242 243 244 245 244 237 224 213 210 213 217 222 225 227 227 220 216 221 221 225 230 222 217 217 214 218 218 208 204 204 206 210 212 216 218 217
237 235 234 228 221 221 222 221 220 222 224 226 229 233 236 239 242 244 246 247 249 250 252 255 258 259 260 260 261 263 265 268 269 271 273 273 273 271 267 265 263 262 261 262 264 265 264 260 255 251 249 247 245 244 244 243 242 239 229 217 211 212 214 219 223 226 225 219 217 222 218 223 234 225 217 225 224 221 220 212 206 204 204 208 212 215 219 220
235 233 234 233 230 228 229 230 229 229 230 232 234 237 240 243 246 248 250 251 251 252 252 253 255 257 258 258 259 260 263 266 269 272 275 276 277 277 275 271 266 264 264 263 263 265 265 263 258 254 251 249 246 245 244 242 239 235 229 219 211 209 211 215 218 222 223 219 218 223 221 226 236 228 221 231 231 224 220 217 212 208 206 208 211 214 217 221
236 233 233 234 235 234 234 236 237 236 236 237 239 241 244 246 247 249 251 252 252 252 252 252 253 255 257 257 258 259 261 264 268 271 274 276 279 280 280 277 273 269 266 264 263 263 264 264 262 257 253 249 246 245 243 242 239 233 229 223 215 209 210 212 216 220 221 218 217 220 220 222 230 227 221 229 234 229 224 222 219 215 211 210 211 213 215 219
238 236 235 234 235 237 237 238 239 240 240 241 242 244 245 247 248 249 251 252 253 252 252 251 253 254 256 257 258 258 259 262 266 269 271 274 277 279 280 280 278 274 269 266 264 263 263 265 263 257 252 249 247 246 245 245 243 236 230 226 220 214 210 211 214 218 220 220 218 219 218 218 224 227 224 225 231 233 228 226 224 221 219 216 214 213 214 217
239 238 237 236 235 237 238 239 240 241 242 242 243 245 246 247 249 249 250 252 252 253 253 253 253 253 255 256 257 258 259 261 264 267 270 272 275 277 279 280 280 278 274 269 266 264 264 264 262 259 254 249 247 246 246 247 247 242 233 229 225 219 213 212 213 216 219 221 221 220 219 219 221 226 225 223 228 233 231 227 227 226 225 224 222 219 216 217
239 239 239 239 238 237 238 239 240 241 242 242 243 244 245 247 248 249 250 251 253 253 254 254 254 253 254 255 256 258 259 260 262 265 268 271 273 275 277 278 279 278 276 273 269 267 266 265 263 261 256 251 247 245 244 244 245 244 237 230 225 221 217 215 214 215 217 220 223 221 217 219 221 221 222 223 226 231 231 229 228 229 229 230 230 228 225 222
240 240 240 240 240 239 239 240 240 241 241 242 242 242 243 245 247 249 250 251 252 254 254 255 254 254 254 254 255 257 259 260 262 264 266 269 271 273 275 275 275 274 274 273 271 268 267 267 265 262 258 252 247 243 242 242 243 243 239 231 223 220 219 216 215 216 216 219 224 222 217 220 223 219 219 222 226 230 231 229 228 228 228 230 232 233 232 230
241 241 241 242 241 241 241 241 242 242 242 242 242 242 242 243 246 248 250 250 252 253 254 255 255 254 254 254 255 257 258 260 262 264 266 268 271 273 275 274 273 271 270 269 270 268 267 267 266 265 261 254 248 244 240 239 241 242 241 235 227 222 220 218 217 217 216 219 224 223 219 220 221 218 216 218 224 228 228 228 228 226 226 228 229 231 231 231
242 241 241 242 243 242 242 243 243 243 243 243 242 242 242 242 244 246 248 249 250 251 253 254 254 254 254 254 256 257 259 261 262 264 266 268 271 273 275 275 271 268 266 265 267 267 267 267 267 266 263 257 251 246 241 238 238 240 239 236 231 226 223 221 220 219 218 221 224 224 222 222 221 219 219 219 223 226 226 227 229 226 225 227 228 229 228 227
244 243 242 242 243 243 244 244 244 244 244 244 244 243 242 242 243 244 246 247 248 249 250 251 252 254 254 255 256 257 259 261 262 264 267 269 271 273 274 274 270 265 264 263 264 265 266 268 268 267 265 261 254 248 243 239 237 238 238 236 233 230 226 223 222 221 220 222 225 225 225 225 222 220 221 222 225 227 226 227 229 227 224 226 228 229 229 227
249 246 243 242 242 243 243 244 244 244 244 244 244 244 243 243 242 243 244 246 247 248 248 249 250 252 253 254 256 256 258 260 262 265 267 269 271 273 274 273 268 264 262 261 262 263 265 267 270 270 267 263 257 250 243 239 237 237 238 237 234 231 229 226 224 223 223 224 226 227 228 228 224 222 223 223 225 228 227 228 230 228 225 226 228 229 230 229
254 251 247 245 243 243 243 243 244 244 244 244 244 244 244 243 243 243 244 245 246 247 247 248 248 249 251 253 255 256 257 259 262 265 267 269 271 272 273 271 268 263 260 259 260 262 263 265 269 271 270 265 260 253 245 239 236 236 236 236 235 233 231 230 228 226 225 225 226 228 230 230 225 223 224 224 225 229 229 230 232 228 224 225 228 230 232 231
Height
10972 10971 10971 10970 10970 10970 10970 10970 10970 10971 10970 10970 10968 10968 10967 10967 10966 10967 10968 10969 10969 10968 10967 10966 10966 10967 10966 10966 10967 10969 10969 10968 10968 10967 10967 10968 10969 10969 10969 10969 10969 10968 10969 10969 10969 10970 10970 10971 10973 10974 10975 10977 10978 10980 10982 10984 10986 10988 10990 10991 10992 10994 10995 10997 10999 11001 11003 11005 11008 11010 11012 11014 11015 11017 11018 11018 11019 11019 11019 11019 11020 11021 11023 11025 11027 11028 11030 11031
10968 10968 10968 10967 10967 10966 10966 10966 10967 10967 10968 10968 10967 10966 10965 10965 10964 10964 10964 10966 10967 10967 10966 10964 10963 10964 10964 10963 10964 10966 10967 10966 10966 10966 10964 10965 10967 10967 10968 10967 10967 10967 10967 10967 10967 10968 10968 10969 10970 10972 10973 10974 10976 10977 10979 10981 10983 10985 10987 10988 10990 10992 10993 10995 10997 10998 11001 11002 11005 11007 11009 11011 11012 11015 11016 11016 11016 11015 11015 11017 11018 11020 11022 11024 11025 11027 11029 11030
10966 10965 10965 10964 10964 10963 10963 10963 10962 10963 10964 10965 10965 10964 10963 10962 10962 10961 10961 10962 10963 10964 10964 10963 10961 10961 10961 10961 10961 10963 10964 10964 10964 10964 10962 10962 10964 10965 10966 10966 10965 10965 10965 10966 10966 10966 10967 10967 10968 10969 10971 10972 10973 10975 10976 10978 10980 10982 10984 10985 10987 10989 10991 10993 10994 10996 10998 11000 11002 11004 11006 11008 11010 11012 11014 11014 11013 11012 11013 11015 11017 11019 11020 11022 11024 11025 11027 11028
10963 10962 10962 10961 10961 10960 10959 10959 10958 10959 10960 10961 10962 10961 10960 10960 10959 10959 10959 10959 10960 10961 10961 10961 10960 10959 10958 10959 10959 10959 10960 10961 10962 10962 10960 10960 10961 10963 10964 10964 10964 10963 10963 10964 10964 10965 10965 10966 10967 10967 10968 10970 10971 10972 10974 10975 10977 10978 10980 10982 10984 10986 10988 10990 10992 10994 10996 10998 10999 11001 11003 11005 11007 11009 11011 11012 11012 11011 11012 11014 11016 11017 11018 11019 11022 11023 11025 11026
10959 10959 10958 10958 10958 10957 10957 10956 10955 10955 10955 10956 10957 10958 10957 10957 10956 10956 10956 10956 10957 10957 10958 10958 10958 10957 10956 10956 10956 10956 10957 10958 10959 10960 10958 10957 10958 10960 10962 10962 10962 10961 10961 10962 10963 10963 10964 10964 10965 10966 10966 10967 10969 10970 10971 10973 10974 10975 10977 10979 10980 10982 10985 10987 10989 10991 10993 10995 10997 10999 11000 11002 11004 11006 11008 11010 11010 11010 11011 11012 11014 11015 11016 11017 11020 11021 11022 11024
10955 10955 10955 10955 10955 10954 10954 10952 10951 10951 10951 10952 10953 10953 10954 10953 10953 10953 10953 10953 10953 10954 10954 10955 10955 10956 10954 10953 10954 10954 10954 10955 10956 10957 10957 10955 10955 10957 10959 10960 10960 10959 10959 10960 10961 10962 10963 10963 10964 10964 10965 10965 10966 10967 10969 10970 10971 10973 10974 10976 10977 10979 10982 10984 10986 10988 10990 10992 10994 10996 10998 11000 11001 11003 11004 11006 11008 11009 11009 11010 11012 11013 11014 11015 11017 11019 11020 11021
10951 10951 10951 10951 10951 10951 10950 10949 10947 10947 10948 10949 10949 10949 10949 10950 10949 10949 10949 10950 10950 10950 10951 10951 10952 10953 10952 10951 10951 10951 10951 10953 10953 10954 10954 10953 10952 10954 10956 10957 10958 10957 10956 10957 10959 10960 10961 10961 10962 10963 10963 10964 10964 10965 10966 10968 10969 10970 10972 10973 10975 10977 10979 10981 10983 10985 10987 10989 10991 10993 10995 10997 10998 11000 11001 11003 11005 11007 11008 11009 11010 11011 11012 11013 11015 11016 11017 11019
10947 10947 10947 10946 10947 10947 10947 10945 10943 10943 10944 10945 10945 10945 10945 10945 10945 10945 10945 10945 10946 10947 10947 10947 10948 10949 10950 10949 10948 10948 10948 10950 10950 10951 10951 10950 10949 10950 10952 10954 10955 10955 10954 10955 10957 10958 10959 10960 10960 10961 10961 10962 10962 10963 10964 10965 10967 10968 10969 10971 10973 10975 10976 10978 10980 10982 10984 10986 10988 10990 10992 10994 10995 10997 10998 11000 11002 11004 11006 11007 11008 11009 11010 11011 11012 11014 11016 11017
10942 10943 10943 10942 10942 10943 10943 10941 10939 10938 10939 10941 10941 10940 10940 10941 10940 10940 10941 10941 10942 10943 10943 10944 10944 10945 10946 10946 10945 10945 10945 10946 10947 10947 10948 10948 10947 10947 10949 10951 10952 10953 10953 10953 10955 10956 10957 10958 10959 10960 10960 10960 10961 10962 10962 10963 10964 10966 10967 10969 10970 10972 10974 10976 10977 10979 10981 10983 10985 10987 10989 10991 10992 10994 10996 10997 10999 11001 11003 11004 11006 11007 11008 11009 11010 11011 11013 11015
10938 10938 10938 10938 10937 10938 10938 10937 10935 10934 10935 10936 10936 10935 10935 10936 10936 10936 10936 10937 10938 10939 10939 10940 10940 10941 10942 10943 10942 10942 10942 10943 10944 10944 10945 10945 10944 10944 10945 10948 10950 10951 10951 10951 10952 10953 10955 10956 10956 10958 10958 10959 10959 10960 10961 10962 10962 10963 10964 10966 10967 10969 10971 10973 10975 10977 10978 10980 10982 10984 10986 10988 10989 10991 10993 10995 10996 10998 11000 11001 11003 11005 11006 11007 11008 11009 11011 11012
10933 10934 10934 10933 10933 10933 10933 10933 10931 10929 10930 10932 10932 10931 10931 10931 10931 10932 10932 10933 10934 10935 10935 10936 10936 10936 10938 10939 10939 10939 10939 10940 10941 10941 10942 10942 10941 10941 10942 10944 10947 10949 10949 10949 10950 10951 10952 10953 10954 10955 10956 10957 10957 10958 10959 10960 10961 10962 10962 10964 10965 10966 10968 10970 10971 10973 10975 10977 10979 10982 10984 10985 10986 10988 10990 10992 10993 10995 10997 10999 11000 11002 11003 11004 11006 11008 11009 11011
10928 10929 10929 10929 10929 10928 10928 10928 10926 10925 10926 10927 10927 10926 10926 10927 10927 10927 10928 10929 10930 10931 10931 10931 10932 10933 10934 10935 10936 10936 10936 10936 10937 10938 10939 10939 10938 10938 10939 10940 10944 10946 10946 10947 10948 10949 10950 10951 10952 10953 10954 10955 10956 10956 10957 10958 10959 10960 10961 10962 10963 10964 10966 10967 10969 10970 10972 10974 10976 10979 10982 10983 10984 10985 10987 10988 10990 10992 10994 10996 10997 10999 11000 11001 11003 11005 11007 11009
10923 10924 10924 10924 10924 10924 10924 10923 10921 10920 10922 10923 10923 10922 10922 10923 10923 10923 10924 10925 10926 10926 10927 10927 10928 10929 10930 10932 10933 10933 10932 10933 10934 10935 10936 10936 10936 10935 10935 10936 10940 10943 10944 10944 10945 10946 10947 10948 10949 10950 10951 10952 10953 10955 10955 10956 10958 10958 10959 10960 10961 10962 10964 10964 10966 10967 10969 10971 10973 10976 10980 10981 10981 10982 10984 10985 10987 10989 10991 10993 10994 10996 10997 10999 11000 11002 11005 11006
10918 10918 10919 10919 10919 10919 10919 10918 10916 10916 10918 10919 10918 10918 10919 10919 10919 10920 10921 10921 10922 10922 10923 10924 10924 10926 10927 10928 10929 10929 10929 10930 10931 10932 10932 10933 10933 10932 10932 10933 10935 10939 10941 10941 10942 10943 10944 10946 10947 10948 10949 10950 10951 10952 10953 10955 10956 10957 10957 10958 10959 10960 10961 10962 10963 10965 10966 10968 10970 10973 10977 10977 10978 10979 10981 10982 10984 10986 10988 10989 10991 10993 10994 10996 10997 10999 11001 11003
10912 10913 10913 10913 10914 10914 10914 10913 10912 10912 10914 10915 10914 10914 10915 10916 10916 10917 10917 10918 10918 10919 10920 10920 10921 10923 10924 10925 10926 10926 10925 10926 10928 10928 10929 10930 10930 10929 10929 10929 10930 10934 10937 10938 10939 10940 10942 10943 10945 10946 10947 10948 10949 10950 10951 10952 10954 10955 10955 10956 10957 10958 10959 10960 10961 10962 10964 10965 10967 10970 10972 10973 10974 10976 10978 10979 10981 10983 10985 10986 10988 10990 10992 10993 10995 10996 10998 10999
10906 10906 10907 10907 10908 10909 10909 10908 10907 10908 10910 10911 10911 10911 10912 10913 10913 10913 10914 10915 10915 10916 10917 10918 10918 10919 10921 10922 10923 10923 10922 10923 10924 10925 10926 10927 10927 10926 10926 10926 10926 10929 10933 10934 10935 10937 10939 10941 10942 10943 10945 10945 10946 10947 10948 10950 10952 10953 10953 10954 10955 10955 10957 10958 10959 10960 10961 10962 10964 10966 10968 10969 10971 10973 10975 10977 10979 10980 10982 10983 10985 10986 10988 10990 10992 10993 10994 10995
10899 10900 10901 10901 10902 10903 10903 10903 10902 10904 10906 10907 10907 10908 10909 10910 10910 10911 10911 10912 10912 10913 10914 10915 10915 10916 10917 10919 10919 10919 10919 10920 10921 10922 10922 10923 10923 10923 10923 10922 10922 10924 10928 10930 10932 10934 10936 10938 10939 10941 10942 10942 10943 10944 10946 10948 10949 10950 10951 10952 10953 10954 10954 10955 10956 10957 10958 10959 10960 10962 10964 10965 10968 10970 10972 10974 10976 10978 10979 10981 10982 10983 10985 10987 10989 10990 10991 10992
10893 10894 10894 10895 10896 10897 10898 10898 10898 10899 10902 10903 10904 10905 10906 10907 10907 10908 10908 10909 10910 10910 10911 10912 10913 10913 10914 10915 10916 10916 10916 10916 10917 10918 10919 10919 10920 10920 10920 10919 10919 10920 10923 10926 10928 10930 10932 10935 10937 10938 10939 10940 10941 10942 10943 10945 10947 10948 10948 10949 10950 10951 10952 10953 10954 10955 10955 10956 10957 10959 10960 10963 10965 10967 10969 10971 10973 10974 10976 10978 10979 10980 10982 10983 10985 10986 10988 10989
10886 10888 10888 10889 10890 10891 10892 10893 10893 10895 10898 10900 10900 10902 10903 10904 10904 10905 10906 10907 10907 10907 10908 10908 10909 10910 10911 10912 10912 10913 10913 10913 10913 10914 10915 10916 10916 10917 10917 10916 10916 10916 10919 10922 10924 10926 10929 10932 10934 10935 10936 10937 10938 10939 10940 10943 10945 10945 10946 10947 10948 10949 10950 10951 10952 10952 10953 10953 10954 10956 10958 10960 10962 10964 10965 10967 10969 10971 10972 10974 10976 10978 10979 10980 10981 10982 10984 10985
10880 10882 10882 10883 10884 10886 10887 10888 10889 10891 10894 10896 10897 10898 10900 10900 10901 10902 10903 10904 10904 10904 10904 10905 10906 10907 10908 10909 10909 10909 10910 10909 10910 10911 10912 10912 10913 10913 10914 10914 10913 10913 10916 10919 10921 10922 10925 10929 10931 10932 10932 10933 10935 10936 10937 10940 10942 10943 10944 10944 10945 10946 10947 10949 10950 10950 10950 10951 10952 10953 10955 10957 10959 10961 10962 10964 10965 10967 10968 10971 10973 10975 10976 10977 10978 10979 10980 10982
10874 10875 10876 10876 10878 10880 10882 10883 10884 10887 10890 10892 10893 10894 10896 10897 10898 10898 10900 10900 10901 10901 10901 10902 10903 10904 10904 10905 10906 10907 10907 10906 10907 10907 10908 10909 10910 10911 10911 10911 10911 10911 10913 10916 10917 10918 10922 10925 10928 10928 10928 10930 10932 10933 10935 10938 10939 10940 10941 10942 10943 10944 10945 10946 10947 10948 10949 10949 10950 10951 10953 10955 10956 10957 10959 10960 10962 10963 10965 10967 10969 10971 10972 10973 10974 10975 10976 10978
10868 10869 10870 10870 10872 10874 10876 10878 10880 10882 10885 10887 10889 10890 10892 10893 10894 10895 10896 10897 10897 10897 10898 10899 10900 10901 10901 10902 10904 10904 10904 10904 10904 10905 10906 10906 10907 10908 10908 10909 10909 10908 10909 10912 10914 10915 10918 10922 10924 10924 10924 10926 10928 10930 10932 10935 10937 10938 10938 10939 10940 10942 10943 10944 10944 10945 10946 10947 10948 10949 10951 10952 10953 10954 10956 10957 10959 10960 10961 10963 10965 10967 10969 10970 10970 10972 10973 10975
10861 10862 10863 10864 10866 10869 10871 10872 10875 10878 10881 10883 10884 10886 10888 10889 10890 10891 10893 10893 10893 10893 10895 10896 10897 10898 10898 10899 10900 10901 10901 10902 10902 10903 10903 10904 10905 10905 10906 10906 10907 10906 10907 10909 10911 10913 10916 10919 10920 10919 10920 10922 10924 10926 10929 10932 10934 10935 10935 10936 10938 10939 10941 10942 10942 10943 10944 10945 10947 10948 10950 10950 10951 10951 10953 10954 10955 10957 10958 10959 10961 10963 10965 10966 10967 10968 10970 10971
10854 10855 10856 10857 10859 10862 10865 10867 10870 10873 10876 10878 10880 10882 10884 10885 10886 10887 10889 10890 10890 10890 10892 10893 10894 10895 10895 10896 10897 10898 10899 10900 10900 10900 10901 10902 10902 10903 10904 10904 10904 10904 10905 10907 10909 10912 10914 10916 10916 10915 10916 10918 10921 10924 10926 10930 10932 10932 10932 10933 10935 10937 10939 10940 10941 10941 10942 10943 10944 10946 10948 10948 10949 10950 10950 10951 10953 10954 10955 10956 10957 10959 10961 10962 10964 10965 10967 10968
10847 10848 10849 10850 10853 10856 10859 10862 10865 10868 10871 10873 10875 10877 10879 10881 10882 10884 10885 10886 10886 10887 10888 10890 10891 10891 10892 10893 10895 10896 10897 10897 10898 10898 10899 10899 10900 10901 10901 10902 10902 10903 10903 10905 10908 10910 10911 10912 10912 10912 10912 10915 10918 10920 10924 10927 10930 10929 10929 10930 10932 10935 10936 10938 10939 10940 10940 10941 10942 10944 10945 10947 10948 10948 10949 10949 10950 10951 10952 10953 10954 10955 10957 10959 10960 10962 10964 10966
10840 10842 10842 10844 10846 10849 10853 10857 10860 10863 10866 10869 10871 10873 10875 10877 10878 10880 10881 10882 10883 10884 10885 10887 10888 10889 10890 10891 10892 10893 10894 10895 10896 10896 10897 10898 10898 10899 10899 10900 10900 10901 10901 10903 10905 10908 10908 10909 10909 10909 10910 10912 10915 10917 10921 10925 10927 10926 10926 10927 10930 10932 10934 10935 10937 10938 10938 10939 10941 10942 10943 10945 10946 10947 10947 10947 10948 10949 10950 10950 10951 10952 10953 10955 10957 10959 10961 10963
10834 10836 10836 10838 10840 10844 10849 10852 10855 10859 10862 10864 10866 10869 10871 10873 10874 10876 10878 10878 10879 10880 10882 10883 10885 10886 10887 10889 10890 10891 10892 10893 10893 10894 10895 10896 10896 10897 10897 10897 10898 10898 10899 10901 10903 10905 10906 10906 10907 10907 10907 10910 10912 10915 10918 10921 10923 10923 10922 10925 10927 10929 10931 10933 10934 10935 10936 10937 10939 10940 10942 10943 10944 10946 10946 10946 10946 10947 10947 10948 10948 10949 10950 10952 10954 10956 10958 10960
10829 10830 10831 10832 10835 10840 10845 10848 10851 10854 10857 10860 10863 10865 10867 10869 10871 10872 10874 10875 10876 10877 10879 10881 10882 10884 10885 10886 10888 10889 10890 10890 10891 10891 10892 10893 10894 10894 10895 10895 10895 10896 10897 10898 10900 10902 10904 10904 10904 10904 10905 10906 10908 10912 10914 10917 10919 10919 10920 10923 10924 10926 10928 10930 10931 10933 10934 10935 10936 10938 10940 10941 10942 10944 10945 10945 10945 10945 10946 10946 10946 10947 10948 10949 10951 10953 10955 10957
10825 10826 10827 10828 10832 10838 10841 10844 10847 10850 10853 10856 10859 10861 10864 10866 10867 10869 10870 10871 10873 10875 10877 10878 10880 10881 10883 10884 10885 10886 10887 10887 10888 10889 10890 10891 10891 10892 10892 10892 10893 10893 10894 10896 10898 10900 10901 10901 10901 10902 10902 10904 10907 10910 10911 10913 10915 10915 10917 10920 10921 10923 10925 10927 10929 10930 10932 10933 10934 10936 10938 10939 10940 10941 10943 10943 10943 10944 10944 10944 10944 10945 10946 10947 10949 10951 10953 10955
10821 10822 10824 10826 10830 10835 10838 10840 10843 10846 10849 10853 10855 10858 10860 10862 10864 10865 10867 10868 10870 10872 10874 10876 10877 10879 10880 10881 10882 10883 10884 10885 10885 10886 10887 10888 10888 10889 10889 10890 10890 10890 10892 10893 10895 10897 10898 10898 10899 10900 10901 10903 10906 10907 10907 10909 10911 10912 10915 10917 10919 10920 10923 10925 10926 10928 10930 10931 10932 10934 10936 10937 10937 10938 10940 10940 10941 10942 10942 10942 10943 10943 10944 10945 10947 10949 10951 10953
10819 10820 10822 10824 10828 10832 10834 10837 10840 10843 10846 10850 10852 10854 10857 10859 10861 10863 10864 10866 10868 10870 10872 10873 10874 10876 10877 10878 10880 10881 10882 10883 10883 10884 10885 10885 10886 10886 10887 10887 10888 10888 10889 10890 10892 10893 10894 10894 10895 10897 10900 10901 10902 10903 10903 10906 10908 10909 10912 10915 10916 10918 10920 10922 10924 10926 10928 10928 10929 10932 10934 10935 10935 10935 10937 10938 10938 10939 10940 10940 10941 10942 10942 10943 10945 10947 10950 10951
10817 10818 10820 10823 10826 10829 10831 10834 10837 10840 10843 10847 10849 10851 10854 10856 10858 10860 10862 10864 10866 10868 10869 10871 10872 10873 10874 10876 10877 10878 10879 10880 10881 10882 10882 10883 10883 10884 10884 10885 10885 10886 10887 10888 10889 10890 10890 10891 10892 10895 10897 10898 10899 10899 10900 10902 10905 10907 10910 10913 10914 10915 10918 10921 10922 10924 10925 10926 10928 10931 10932 10933 10932 10933 10935 10936 10936 10937 10938 10938 10939 10940 10941 10942 10943 10946 10948 10950
10816 10816 10818 10821 10824 10826 10829 10832 10835 10838 10841 10844 10846 10849 10851 10853 10855 10857 10859 10862 10864 10865 10867 10868 10869 10870 10872 10873 10874 10876 10877 10878 10879 10879 10880 10880 10880 10881 10882 10882 10883 10883 10884 10885 10885 10886 10887 10887 10889 10892 10894 10895 10896 10896 10897 10900 10903 10905 10909 10910 10912 10913 10916 10918 10919 10920 10922 10924 10926 10928 10929 10930 10931 10932 10933 10934 10934 10935 10935 10936 10937 10938 10939 10940 10942 10944 10946 10948
10814 10815 10817 10820 10822 10824 10827 10830 10833 10836 10839 10842 10844 10847 10849 10851 10853 10855 10857 10859 10861 10863 10864 10865 10866 10868 10869 10871 10872 10873 10874 10875 10876 10877 10877 10877 10877 10878 10879 10879 10880 10881 10881 10882 10882 10883 10883 10884 10886 10889 10891 10892 10893 10894 10896 10899 10901 10903 10906 10907 10909 10910 10912 10915 10916 10916 10918 10921 10924 10926 10927 10928 10929 10930 10931 10932 10933 10933 10933 10934 10935 10936 10937 10938 10940 10942 10944 10947
10813 10814 10816 10819 10821 10823 10826 10828 10831 10834 10837 10840 10842 10845 10847 10849 10851 10853 10855 10857 10859 10860 10861 10862 10863 10865 10866 10868 10869 10870 10871 10872 10873 10874 10874 10874 10875 10875 10876 10876 10877 10878 10878 10879 10879 10879 10880 10881 10883 10885 10888 10889 10890 10892 10894 10896 10898 10900 10902 10904 10906 10907 10908 10910 10911 10912 10915 10920 10923 10924 10925 10926 10927 10928 10929 10930 10931 10931 10931 10932 10933 10934 10935 10937 10938 10940 10942 10944
10813 10813 10815 10818 10820 10822 10824 10827 10830 10833 10835 10838 10841 10843 10845 10846 10848 10850 10852 10854 10856 10857 10858 10860 10861 10862 10864 10865 10866 10867 10868 10869 10870 10871 10871 10871 10872 10872 10873 10873 10874 10875 10876 10876 10876 10876 10877 10879 10880 10882 10884 10886 10888 10890 10892 10893 10895 10897 10898 10900 10903 10904 10905 10907 10908 10909 10914 10918 10921 10921 10923 10925 10925 10927 10928 10929 10930 10930 10929 10930 10931 10932 10933 10935 10936 10938 10940 10942
10812 10813 10815 10817 10819 10820 10823 10826 10829 10831 10834 10837 10839 10841 10842 10844 10846 10848 10850 10852 10853 10855 10856 10857 10858 10860 10861 10862 10863 10864 10865 10866 10867 10868 10868 10869 10869 10870 10870 10870 10871 10872 10873 10873 10874 10874 10875 10876 10878 10879 10882 10884 10885 10887 10889 10891 10892 10893 10895 10897 10899 10900 10902 10904 10905 10907 10911 10916 10918 10919 10921 10923 10924 10925 10927 10928 10928 10927 10928 10928 10929 10930 10931 10933 10934 10935 10937 10939
10811 10812 10814 10816 10818 10819 10822 10825 10827 10830 10833 10835 10837 10838 10840 10842 10843 10845 10847 10849 10851 10852 10853 10854 10855 10857 10858 10859 10860 10861 10862 10863 10864 10865 10865 10866 10866 10867 10867 10867 10868 10869 10870 10871 10871 10871 10872 10874 10875 10877 10879 10880 10882 10884 10886 10888 10889 10890 10892 10893 10895 10897 10899 10901 10903 10905 10908 10912 10915 10916 10918 10921 10921 10921 10923 10925 10924 10924 10925 10926 10927 10929 10929 10930 10931 10932 10934 10936
10811 10812 10813 10815 10817 10818 10821 10823 10826 10828 10831 10833 10835 10836 10838 10839 10840 10842 10844 10846 10848 10850 10851 10852 10853 10854 10854 10855 10856 10857 10858 10859 10860 10861 10862 10863 10863 10864 10864 10865 10865 10866 10867 10868 10869 10869 10870 10871 10873 10874 10876 10877 10879 10881 10883 10884 10886 10888 10888 10889 10892 10895 10896 10898 10899 10902 10905 10909 10912 10913 10915 10917 10917 10918 10920 10921 10922 10922 10923 10924 10925 10926 10927 10928 10929 10930 10931 10932
10809 10810 10812 10814 10816 10817 10819 10822 10824 10826 10829 10831 10832 10834 10835 10836 10838 10839 10841 10843 10845 10847 10848 10849 10850 10851 10851 10852 10853 10854 10855 10856 10857 10858 10859 10860 10860 10861 10862 10862 10863 10864 10865 10866 10866 10867 10867 10869 10870 10871 10873 10875 10876 10878 10879 10881 10883 10885 10886 10887 10889 10891 10893 10894 10896 10898 10902 10906 10909 10910 10912 10914 10914 10915 10917 10918 10919 10920 10920 10922 10923 10924 10924 10925 10926 10927 10928 10929
10807 10809 10810 10812 10814 10815 10817 10820 10822 10824 10826 10828 10830 10831 10832 10834 10835 10837 10839 10841 10842 10844 10845 10846 10847 10848 10848 10849 10850 10851 10852 10853 10854 10855 10856 10856 10857 10858 10859 10860 10861 10861 10862 10863 10864 10864 10865 10866 10867 10869 10870 10872 10874 10875 10877 10878 10879 10882 10884 10885 10886 10888 10890 10892 10893 10895 10898 10903 10905 10907 10909 10910 10910 10912 10914 10915 10916 10917 10918 10919 10920 10921 10922 10923 10923 10925 10926 10927
10805 10806 10808 10809 10811 10813 10815 10817 10819 10822 10824 10826 10827 10828 10830 10831 10833 10834 10836 10837 10839 10840 10842 10843 10844 10844 10845 10846 10847 10848 10850 10850 10851 10852 10853 10854 10854 10855 10856 10857 10858 10859 10860 10860 10861 10862 10863 10863 10864 10866 10867 10869 10871 10872 10874 10875 10876 10878 10880 10881 10883 10884 10886 10887 10890 10892 10895 10900 10903 10904 10907 10908 10908 10910 10912 10913 10914 10915 10916 10917 10917 10918 10919 10920 10921 10922 10923 10925
10801 10803 10805 10806 10808 10810 10812 10813 10815 10818 10821 10822 10824 10826 10827 10829 10830 10831 10833 10834 10835 10836 10838 10840 10841 10841 10842 10843 10844 10846 10847 10848 10849 10849 10850 10851 10852 10853 10853 10854 10855 10856 10857 10857 10858 10859 10860 10861 10862 10863 10865 10866 10868 10869 10871 10872 10873 10874 10876 10878 10879 10880 10882 10884 10887 10890 10893 10896 10898 10901 10904 10905 10905 10907 10909 10910 10911 10912 10913 10914 10915 10916 10916 10917 10918 10919 10921 10922
10797 10798 10801 10803 10804 10806 10808 10810 10811 10814 10817 10819 10821 10823 10824 10825 10827 10828 10829 10830 10831 10832 10834 10836 10837 10838 10838 10839 10841 10843 10844 10845 10846 10847 10847 10848 10849 10850 10851 10851 10852 10853 10854 10855 10855 10856 10857 10858 10859 10860 10862 10863 10865 10867 10868 10869 10870 10871 10873 10875 10876 10878 10879 10881 10884 10887 10889 10892 10894 10897 10900 10902 10903 10904 10906 10908 10908 10909 10910 10911 10912 10913 10914 10915 10916 10917 10919 10920
10792 10794 10796 10798 10800 10802 10804 10805 10807 10810 10812 10815 10817 10819 10821 10822 10823 10824 10825 10826 10827 10828 10830 10832 10834 10835 10835 10836 10837 10839 10841 10842 10843 10844 10844 10845 10846 10847 10848 10849 10849 10850 10851 10852 10852 10853 10855 10855 10856 10857 10859 10861 10862 10864 10866 10867 10868 10869 10870 10872 10874 10876 10878 10879 10881 10884 10886 10889 10891 10893 10897 10899 10901 10902 10904 10906 10906 10906 10907 10908 10910 10911 10913 10914 10914 10916 10917 10918
10787 10789 10791 10793 10796 10797 10799 10800 10803 10805 10807 10810 10813 10815 10817 10818 10819 10820 10822 10822 10823 10824 10826 10827 10829 10831 10832 10833 10834 10835 10837 10838 10840 10841 10842 10842 10843 10844 10845 10846 10847 10847 10847 10848 10849 10851 10852 10853 10853 10854 10856 10858 10860 10862 10863 10864 10865 10866 10867 10869 10871 10874 10875 10877 10879 10881 10883 10885 10887 10890 10894 10896 10897 10900 10903 10904 10903 10902 10904 10906 10908 10909 10911 10912 10913 10914 10916 10917
10783 10784 10786 10788 10790 10792 10794 10795 10798 10800 10803 10805 10808 10811 10813 10814 10815 10816 10817 10818 10819 10820 10821 10823 10825 10827 10828 10829 10831 10832 10833 10835 10836 10837 10838 10839 10840 10841 10842 10843 10844 10844 10845 10845 10846 10848 10849 10850 10851 10852 10853 10855 10857 10858 10860 10862 10863 10864 10865 10866 10868 10870 10872 10874 10876 10877 10880 10882 10883 10885 10890 10892 10893 10897 10899 10901 10901 10900 10901 10904 10905 10907 10908 10910 10911 10912 10914 10915
10777 10779 10781 10783 10785 10787 10789 10791 10793 10795 10798 10800 10803 10806 10808 10809 10810 10811 10813 10814 10815 10816 10817 10819 10821 10823 10824 10826 10827 10828 10829 10830 10832 10833 10835 10835 10836 10837 10839 10840 10841 10842 10842 10843 10844 10846 10847 10847 10848 10849 10851 10852 10854 10855 10857 10859 10860 10861 10862 10864 10865 10866 10868 10870 10872 10874 10877 10878 10878 10882 10886 10887 10889 10892 10895 10896 10897 10897 10898 10901 10902 10904 10906 10907 10908 10909 10911 10912
10771 10774 10776 10777 10779 10781 10783 10785 10788 10790 10792 10795 10797 10800 10802 10804 10806 10807 10807 10808 10810 10812 10813 10815 10817 10819 10820 10822 10823 10824 10825 10826 10828 10829 10830 10832 10833 10834 10835 10837 10838 10839 10839 10840 10841 10843 10844 10845 10845 10846 10848 10849 10850 10852 10854 10856 10858 10859 10860 10861 10862 10864 10866 10867 10869 10871 10873 10874 10874 10878 10882 10883 10886 10889 10890 10891 10893 10893 10896 10898 10899 10901 10903 10904 10905 10906 10907 10909
10765 10768 10770 10772 10774 10776 10778 10780 10782 10784 10787 10789 10792 10795 10797 10799 10800 10802 10802 10803 10805 10807 10809 10811 10813 10815 10816 10818 10819 10820 10821 10822 10823 10824 10826 10827 10829 10830 10831 10833 10835 10835 10836 10837 10838 10840 10841 10842 10843 10844 10845 10846 10847 10849 10851 10853 10855 10856 10858 10859 10860 10861 10863 10864 10866 10868 10869 10870 10872 10875 10878 10880 10883 10885 10886 10888 10889 10890 10892 10894 10896 10898 10900 10901 10902 10903 10904 10905
10759 10761 10763 10766 10768 10770 10772 10774 10776 10778 10781 10784 10786 10788 10791 10793 10795 10796 10797 10798 10800 10801 10804 10807 10809 10811 10812 10814 10815 10816 10817 10818 10819 10820 10821 10823 10825 10826 10828 10829 10830 10832 10832 10834 10835 10836 10838 10839 10840 10841 10842 10843 10844 10846 10848 10850 10852 10853 10855 10856 10857 10858 10860 10861 10862 10864 10866 10868 10871 10873 10875 10876 10879 10882 10883 10884 10886 10887 10889 10891 10892 10894 10897 10898 10899 10900 10901 10902
10754 10755 10757 10759 10761 10763 10766 10768 10770 10773 10775 10777 10780 10782 10785 10787 10789 10791 10792 10793 10795 10797 10799 10802 10805 10807 10808 10810 10811 10812 10813 10814 10814 10815 10817 10818 10820 10822 10823 10825 10826 10827 10829 10830 10831 10833 10835 10837 10838 10838 10839 10840 10841 10842 10845 10847 10849 10850 10851 10853 10854 10855 10856 10858 10859 10861 10864 10866 10869 10870 10870 10871 10875 10878 10879 10881 10882 10883 10885 10888 10888 10891 10893 10895 10896 10897 10898 10899